{"data":{"norad_id":58906,"epoch":"2026-09-22T22:36:50.974560Z","epoch_age_seconds":41312,"freshness":"FRESH","line1":"1 58906U 24023B   26265.94225665  .00001048  00000+0  15357-3 0  9995","line2":"2 58906  49.9983 261.4257 0014683  12.2703 347.8590 14.83465364143420","mean_motion":14.83465364,"eccentricity":0.0014683,"inclination_deg":49.9983,"raan_deg":261.4257,"arg_perigee_deg":12.2703,"mean_anomaly_deg":347.859,"bstar":0.00015357,"rev_number":14342,"period_min":97.0700115382,"perigee_km":608.13393820621,"apogee_km":628.67998921004,"semimajor_km":6996.5439637081,"source":"CELESTRAK","updated_at":"2026-09-23T09:00:19.069648Z"}}